DELTA 1 DEB (YO), 228

Orbit data source: Space-Track

DELTA 1 DEB (YO), 228 is space debris in LEO originally from a launch on Thu, 08 Feb 1962 UTC launched from the Air Force Eastern Test Range (AFETR). Debris objects in space refer to the collection of defunct objects orbiting the Earth. Examples of debris include non-operational satellites, rocket bodies, and fragments generated from explosions, collisions, or faulty payload assembly.

Loading next visibility...
Identifier
228, 1962-002C
Orbit
LEO
Country
Flag of USUS
Related business
Manufacturer
RCA/East Windsor
Mission
Spacecraft
Bus & Motor
Unknown
Mass
~1 kg wet, ~1 kg dry
Launch date (UTC)
1962-02-08 (64 years ago)
Launch vehicle
Unknown
Launch site
Air Force Eastern Test Range (AFETR)
Object type
Payload
Rocket body
Debris
Shape & HBR
Unknown shape, 0.1 m
Radar Cross Section
Medium (>0.1 m² and <1 m²)

Expand to show TLE details & history
Last TLE update: 1 day ago

TLE from 1 day ago
0 DELTA 1 DEB (YO)
1 00228U 62002C   26177.63358486  .00029347  00000-0  45897-3 0  9999
2 00228  48.4296 267.2157 0004238 244.2339 115.8169 15.53415792444578
Epoch: 2026-06-26T15:12Z
TLE epoch observation values (Epoch: 2026-06-26T15:12:21.731Z)
Latitude
-0.00002°
Longitude
124.36585°
Altitude
408.4 km
Speed
7.667 km/s
True Right ascension
17h 48m 51s
True Declination
0° 00' 00"
Sunlit
Object was in full shadow at epoch
Visualization orbit readout
Latitude
Unknown
Longitude
Unknown
Altitude
Unknown
Speed
Unknown
Apparent Right ascension
Unknown
Apparent Declination
Unknown
Sunlit
N/A
Visualization observer readout
Local Sidereal Time
02:15:24
Azimuth
Unknown
Elevation
Unknown
Doppler factor
Unknown
Orbital elements
Apogee altitude
410.683 km
Perigee altitude
404.931 km
Semi-major axis
6,785.944 km
Eccentricity
0.00042
Inclination
48.4296°
RAAN
267.2157°
Arg. of periapsis
244.2339°
True anomaly
115.86061°
Mean anomaly
115.8169°
Eccentric anomaly
115.83875°
Mean motion
3.88265 °/min
Orbital period
92.72 mins
BSTAR
0.00045897
Loading maneuver chart data...
Computing Atmospheric mass density...
Loading historical data...
Loading historical data...
Loading historical data...
Loading historical data...
Loading historical data...
Loading historical data...
Loading historical data...
Other satellites on launch #2 in the year 1962 (1962-02-08 UTC)

Documentation

Showing up to 5 results
|